Time,TemperatureF,DewpointF,PressureIn,WindDirection,WindDirectionDegrees,WindSpeedMPH,WindSpeedGustMPH,Humidity,HourlyPrecipIn,Conditions,Clouds,dailyrainin,SoftwareType,DateUTC
2013-11-23 00:12:00,34.3,30.3,30.37,NNE,22,9.4,-999.0,85,-99.99,,,0.02,Acu-Link.com,2013-11-23 06:12:00,
2013-11-23 00:27:00,34.3,30.3,30.37,NNW,337,8.9,-999.0,85,-99.99,,,0.14,Acu-Link.com,2013-11-23 06:27:00,
2013-11-23 00:43:00,34.5,30.5,30.37,North,0,5.3,-999.0,85,-99.99,,,0.21,Acu-Link.com,2013-11-23 06:43:00,
2013-11-23 00:58:00,34.5,30.5,30.38,NNE,22,7.8,-999.0,85,-99.99,,,0.29,Acu-Link.com,2013-11-23 06:58:00,
2013-11-23 01:13:00,35.4,31.3,30.38,WNW,292,8.9,-999.0,85,-99.99,,,0.30,Acu-Link.com,2013-11-23 07:13:00,
2013-11-23 01:28:00,34.7,30.7,30.38,NNW,337,8.9,-999.0,85,-99.99,,,0.30,Acu-Link.com,2013-11-23 07:28:00,
2013-11-23 01:43:00,34.7,30.7,30.38,North,0,9.9,-999.0,85,-99.99,,,0.32,Acu-Link.com,2013-11-23 07:43:00,
2013-11-23 01:58:00,34.9,30.9,30.39,NE,45,9.4,-999.0,85,-99.99,,,0.33,Acu-Link.com,2013-11-23 07:58:00,
2013-11-23 02:14:00,34.9,30.9,30.39,NNE,22,9.4,-999.0,85,-99.99,,,0.33,Acu-Link.com,2013-11-23 08:14:00,
2013-11-23 02:29:00,34.7,30.7,30.39,North,0,11.9,-999.0,85,-99.99,,,0.33,Acu-Link.com,2013-11-23 08:29:00,
2013-11-23 02:44:00,34.7,30.7,30.39,NNW,337,4.2,-999.0,85,-99.99,,,0.33,Acu-Link.com,2013-11-23 08:44:00,
2013-11-23 02:59:00,34.7,30.7,30.38,NNW,337,7.8,-999.0,85,-99.99,,,0.33,Acu-Link.com,2013-11-23 08:59:00,
2013-11-23 03:14:00,34.7,30.7,30.38,North,0,9.4,-999.0,85,-99.99,,,0.33,Acu-Link.com,2013-11-23 09:14:00,
2013-11-23 03:29:00,34.5,30.5,30.39,NNW,337,8.3,-999.0,85,-99.99,,,0.34,Acu-Link.com,2013-11-23 09:29:00,
2013-11-23 03:44:00,34.3,30.3,30.40,NNW,337,6.3,-999.0,85,-99.99,,,0.35,Acu-Link.com,2013-11-23 09:44:00,
2013-11-23 03:59:00,34.7,30.7,30.40,NNW,337,6.8,-999.0,85,-99.99,,,0.35,Acu-Link.com,2013-11-23 09:59:00,
2013-11-23 04:14:00,34.3,30.3,30.40,NNE,22,9.4,-999.0,85,-99.99,,,0.36,Acu-Link.com,2013-11-23 10:14:00,
2013-11-23 04:30:00,34.5,30.5,30.39,NW,315,10.9,-999.0,85,-99.99,,,0.36,Acu-Link.com,2013-11-23 10:30:00,
2013-11-23 04:45:00,34.2,30.2,30.40,NNW,337,13.5,-999.0,85,-99.99,,,0.36,Acu-Link.com,2013-11-23 10:45:00,
2013-11-23 05:00:00,34.2,30.2,30.40,NNE,22,8.9,-999.0,85,-99.99,,,0.36,Acu-Link.com,2013-11-23 11:00:00,
2013-11-23 05:15:00,34.2,30.2,30.40,NNW,337,11.9,-999.0,85,-99.99,,,0.37,Acu-Link.com,2013-11-23 11:15:00,
2013-11-23 05:30:00,34.0,30.0,30.41,NNW,337,9.4,-999.0,85,-99.99,,,0.38,Acu-Link.com,2013-11-23 11:30:00,
2013-11-23 05:45:00,34.2,30.2,30.41,NNE,22,6.3,-999.0,85,-99.99,,,0.39,Acu-Link.com,2013-11-23 11:45:00,
2013-11-23 06:00:00,34.2,30.2,30.41,NNE,22,11.4,-999.0,85,-99.99,,,0.40,Acu-Link.com,2013-11-23 12:00:00,
2013-11-23 06:15:00,34.2,30.2,30.42,NNW,337,4.7,-999.0,85,-99.99,,,0.40,Acu-Link.com,2013-11-23 12:15:00,
2013-11-23 06:30:00,34.2,30.2,30.42,NNW,337,10.9,-999.0,85,-99.99,,,0.40,Acu-Link.com,2013-11-23 12:30:00,
2013-11-23 06:46:00,34.2,30.2,30.43,NW,315,8.9,-999.0,85,-99.99,,,0.40,Acu-Link.com,2013-11-23 12:46:00,
2013-11-23 07:01:00,34.3,30.3,30.43,NNW,337,13.5,-999.0,85,-99.99,,,0.41,Acu-Link.com,2013-11-23 13:01:00,
2013-11-23 07:16:00,34.3,30.3,30.45,NNW,337,10.9,-999.0,85,-99.99,,,0.41,Acu-Link.com,2013-11-23 13:16:00,
2013-11-23 07:31:00,34.5,30.5,30.45,NNE,22,7.3,-999.0,85,-99.99,,,0.41,Acu-Link.com,2013-11-23 13:31:00,
2013-11-23 07:46:00,34.5,30.5,30.45,North,0,7.3,-999.0,85,-99.99,,,0.41,Acu-Link.com,2013-11-23 13:46:00,
2013-11-23 08:01:00,34.5,30.5,30.45,NNW,337,9.9,-999.0,85,-99.99,,,0.41,Acu-Link.com,2013-11-23 14:01:00,
2013-11-23 08:16:00,34.7,30.7,30.46,NNW,337,7.3,-999.0,85,-99.99,,,0.41,Acu-Link.com,2013-11-23 14:16:00,
2013-11-23 08:31:00,34.9,30.9,30.47,NNE,22,7.3,-999.0,85,-99.99,,,0.43,Acu-Link.com,2013-11-23 14:31:00,
2013-11-23 08:46:00,34.7,30.7,30.47,NNW,337,14.0,-999.0,85,-99.99,,,0.43,Acu-Link.com,2013-11-23 14:46:00,
2013-11-23 09:02:00,34.9,30.9,30.47,NW,315,10.9,-999.0,85,-99.99,,,0.43,Acu-Link.com,2013-11-23 15:02:00,
2013-11-23 09:17:00,35.1,31.1,30.48,North,0,9.4,-999.0,85,-99.99,,,0.44,Acu-Link.com,2013-11-23 15:17:00,
2013-11-23 09:32:00,35.1,31.1,30.48,North,0,8.9,-999.0,85,-99.99,,,0.44,Acu-Link.com,2013-11-23 15:32:00,
2013-11-23 09:47:00,35.2,31.2,30.48,NE,45,9.4,-999.0,85,-99.99,,,0.44,Acu-Link.com,2013-11-23 15:47:00,
2013-11-23 10:02:00,35.6,31.5,30.49,NNW,337,7.3,-999.0,85,-99.99,,,0.44,Acu-Link.com,2013-11-23 16:02:00,
2013-11-23 10:18:00,36.0,31.9,30.49,NNE,22,8.3,-999.0,85,-99.99,,,0.44,Acu-Link.com,2013-11-23 16:18:00,
2013-11-23 10:33:00,36.1,32.0,30.49,NNW,337,9.4,-999.0,85,-99.99,,,0.44,Acu-Link.com,2013-11-23 16:33:00,
2013-11-23 10:48:00,36.1,32.0,30.47,North,0,7.3,-999.0,85,-99.99,,,0.44,Acu-Link.com,2013-11-23 16:48:00,
2013-11-23 11:03:00,36.5,32.4,30.48,NNE,22,7.3,-999.0,85,-99.99,,,0.44,Acu-Link.com,2013-11-23 17:03:00,
2013-11-23 11:18:00,36.9,32.8,30.47,NNE,22,6.8,-999.0,85,-99.99,,,0.44,Acu-Link.com,2013-11-23 17:18:00,
2013-11-23 11:33:00,37.0,32.9,30.47,NE,45,9.4,-999.0,85,-99.99,,,0.44,Acu-Link.com,2013-11-23 17:33:00,
2013-11-23 11:49:00,37.2,33.1,30.46,NNW,337,11.4,-999.0,85,-99.99,,,0.44,Acu-Link.com,2013-11-23 17:49:00,
2013-11-23 12:04:00,37.8,33.7,30.44,NNE,22,6.8,-999.0,85,-99.99,,,0.44,Acu-Link.com,2013-11-23 18:04:00,
2013-11-23 12:19:00,37.8,33.7,30.44,NNE,22,6.8,-999.0,85,-99.99,,,0.44,Acu-Link.com,2013-11-23 18:19:00,
2013-11-23 12:34:00,37.6,33.5,30.44,NNE,22,14.0,-999.0,85,-99.99,,,0.44,Acu-Link.com,2013-11-23 18:34:00,
2013-11-23 12:49:00,37.6,33.5,30.42,NNE,22,9.4,-999.0,85,-99.99,,,0.44,Acu-Link.com,2013-11-23 18:49:00,
2013-11-23 13:04:00,37.8,33.7,30.41,North,0,7.8,-999.0,85,-99.99,,,0.44,Acu-Link.com,2013-11-23 19:04:00,
2013-11-23 13:19:00,37.8,33.7,30.42,NNE,22,15.0,-999.0,85,-99.99,,,0.44,Acu-Link.com,2013-11-23 19:19:00,
2013-11-23 13:34:00,37.9,33.8,30.42,NNE,22,4.7,-999.0,85,-99.99,,,0.44,Acu-Link.com,2013-11-23 19:34:00,
2013-11-23 13:49:00,37.8,33.7,30.41,NNE,22,13.5,-999.0,85,-99.99,,,0.44,Acu-Link.com,2013-11-23 19:49:00,
2013-11-23 14:05:00,37.8,33.7,30.40,NNW,337,10.9,-999.0,85,-99.99,,,0.44,Acu-Link.com,2013-11-23 20:05:00,
2013-11-23 14:20:00,37.8,33.7,30.40,NNW,337,8.3,-999.0,85,-99.99,,,0.44,Acu-Link.com,2013-11-23 20:20:00,
2013-11-23 14:35:00,37.6,33.5,30.40,NNE,22,10.4,-999.0,85,-99.99,,,0.44,Acu-Link.com,2013-11-23 20:35:00,
2013-11-23 14:50:00,37.8,33.7,30.40,NNW,337,9.9,-999.0,85,-99.99,,,0.44,Acu-Link.com,2013-11-23 20:50:00,
2013-11-23 15:05:00,38.5,34.4,30.40,NNE,22,8.3,-999.0,85,-99.99,,,0.44,Acu-Link.com,2013-11-23 21:05:00,
2013-11-23 15:20:00,38.8,34.7,30.40,NE,45,15.5,-999.0,85,-99.99,,,0.44,Acu-Link.com,2013-11-23 21:20:00,
2013-11-23 15:35:00,39.0,34.9,30.40,NNW,337,10.4,-999.0,85,-99.99,,,0.44,Acu-Link.com,2013-11-23 21:35:00,
2013-11-23 15:50:00,39.2,35.1,30.40,NW,315,8.3,-999.0,85,-99.99,,,0.44,Acu-Link.com,2013-11-23 21:50:00,
2013-11-23 16:05:00,39.2,35.1,30.40,NNE,22,14.0,-999.0,85,-99.99,,,0.44,Acu-Link.com,2013-11-23 22:05:00,
2013-11-23 16:21:00,39.4,35.3,30.41,North,0,9.9,-999.0,85,-99.99,,,0.44,Acu-Link.com,2013-11-23 22:21:00,
2013-11-23 16:36:00,39.4,35.3,30.41,NE,45,4.7,-999.0,85,-99.99,,,0.44,Acu-Link.com,2013-11-23 22:36:00,
2013-11-23 16:51:00,39.4,35.3,30.40,NNW,337,8.9,-999.0,85,-99.99,,,0.44,Acu-Link.com,2013-11-23 22:51:00,
2013-11-23 17:06:00,39.7,35.6,30.39,NE,45,9.4,-999.0,85,-99.99,,,0.44,Acu-Link.com,2013-11-23 23:06:00,
2013-11-23 17:21:00,39.9,35.8,30.41,NE,45,9.9,-999.0,85,-99.99,,,0.44,Acu-Link.com,2013-11-23 23:21:00,
2013-11-23 17:36:00,40.1,36.0,30.41,NNE,22,6.8,-999.0,85,-99.99,,,0.44,Acu-Link.com,2013-11-23 23:36:00,
2013-11-23 17:51:00,40.1,36.0,30.40,NNE,22,6.8,-999.0,85,-99.99,,,0.44,Acu-Link.com,2013-11-23 23:51:00,
2013-11-23 18:07:00,40.1,36.0,30.41,NNE,22,6.8,-999.0,85,-99.99,,,0.44,Acu-Link.com,2013-11-24 00:07:00,
2013-11-23 18:22:00,40.3,36.2,30.41,NNE,22,9.4,-999.0,85,-99.99,,,0.44,Acu-Link.com,2013-11-24 00:22:00,
2013-11-23 18:37:00,40.3,36.2,30.41,NNE,22,5.3,-999.0,85,-99.99,,,0.44,Acu-Link.com,2013-11-24 00:37:00,
2013-11-23 18:52:00,40.3,36.2,30.41,NNE,22,9.9,-999.0,85,-99.99,,,0.44,Acu-Link.com,2013-11-24 00:52:00,
2013-11-23 19:07:00,40.3,36.2,30.42,NNE,22,6.3,-999.0,85,-99.99,,,0.44,Acu-Link.com,2013-11-24 01:07:00,
2013-11-23 19:22:00,40.6,36.5,30.42,North,0,10.4,-999.0,85,-99.99,,,0.44,Acu-Link.com,2013-11-24 01:22:00,
2013-11-23 19:38:00,40.6,36.5,30.43,NNE,22,6.3,-999.0,85,-99.99,,,0.44,Acu-Link.com,2013-11-24 01:38:00,
2013-11-23 19:53:00,40.6,36.5,30.43,NNE,22,6.3,-999.0,85,-99.99,,,0.44,Acu-Link.com,2013-11-24 01:53:00,
2013-11-23 20:08:00,40.5,36.4,30.43,NNE,22,7.3,-999.0,85,-99.99,,,0.44,Acu-Link.com,2013-11-24 02:08:00,
2013-11-23 20:23:00,40.5,36.4,30.44,NNE,22,6.8,-999.0,85,-99.99,,,0.44,Acu-Link.com,2013-11-24 02:23:00,
2013-11-23 20:38:00,40.5,36.4,30.44,NE,45,8.9,-999.0,85,-99.99,,,0.44,Acu-Link.com,2013-11-24 02:38:00,
2013-11-23 20:53:00,40.3,36.2,30.44,NNW,337,4.7,-999.0,85,-99.99,,,0.44,Acu-Link.com,2013-11-24 02:53:00,
2013-11-23 21:09:00,38.5,34.4,30.45,NNE,22,8.9,-999.0,85,-99.99,,,0.44,Acu-Link.com,2013-11-24 03:09:00,
2013-11-23 21:24:00,40.5,36.4,30.46,NNW,337,3.7,-999.0,85,-99.99,,,0.44,Acu-Link.com,2013-11-24 03:24:00,
2013-11-23 21:39:00,40.5,36.4,30.46,NNE,22,6.3,-999.0,85,-99.99,,,0.44,Acu-Link.com,2013-11-24 03:39:00,
2013-11-23 21:54:00,40.1,36.0,30.45,NNW,337,9.4,-999.0,85,-99.99,,,0.44,Acu-Link.com,2013-11-24 03:54:00,
2013-11-23 22:09:00,40.3,36.2,30.46,NNE,22,12.5,-999.0,85,-99.99,,,0.44,Acu-Link.com,2013-11-24 04:09:00,
2013-11-23 22:25:00,40.3,36.2,30.46,NNE,22,7.3,-999.0,85,-99.99,,,0.44,Acu-Link.com,2013-11-24 04:25:00,
2013-11-23 22:40:00,40.1,36.0,30.46,NE,45,10.9,-999.0,85,-99.99,,,0.44,Acu-Link.com,2013-11-24 04:40:00,
2013-11-23 22:55:00,39.6,35.5,30.45,North,0,3.2,-999.0,85,-99.99,,,0.44,Acu-Link.com,2013-11-24 04:55:00,
2013-11-23 23:10:00,38.5,34.4,30.46,NNW,337,7.8,-999.0,85,-99.99,,,0.44,Acu-Link.com,2013-11-24 05:10:00,
2013-11-23 23:25:00,37.9,33.8,30.45,NNE,22,4.7,-999.0,85,-99.99,,,0.44,Acu-Link.com,2013-11-24 05:25:00,
2013-11-23 23:40:00,38.5,34.4,30.45,NE,45,7.8,-999.0,85,-99.99,,,0.44,Acu-Link.com,2013-11-24 05:40:00,
2013-11-23 23:56:00,39.0,34.9,30.46,NNE,22,5.8,-999.0,85,-99.99,,,0.44,Acu-Link.com,2013-11-24 05:56:00,